• In Hungary
  • List of Countries
  • For 7 days
  • Water Temperature
  • Satellite Maps
  • Weather Map
  • News
  • Weather Widgets
  • user-avatar
    Login

    Hourly Weather Heywood

    Today, 19 October, Friday

    Time Temperature Precipitation Wind Pressure Humidity
    00:00 +6°C° 0 mm 2 mps 757 mmHg 81%
    01:00 +6°C° 0 mm 2 mps 757 mmHg 83%
    02:00 +6°C° 0 mm 2 mps 756 mmHg 85%
    03:00 +5°C° 0 mm 2 mps 756 mmHg 87%
    04:00 +5°C° 0 mm 2 mps 756 mmHg 88%
    05:00 +5°C° 0 mm 2 mps 756 mmHg 89%
    06:00 +5°C° 0 mm 2 mps 756 mmHg 90%
    07:00 +6°C° 0 mm 2 mps 756 mmHg 89%
    08:00 +7°C° 0 mm 2 mps 756 mmHg 87%
    09:00 +8°C° 0 mm 2 mps 756 mmHg 85%
    10:00 +10°C° 0 mm 3 mps 756 mmHg 82%
    11:00 +11°C° 0 mm 3 mps 756 mmHg 79%
    12:00 +12°C° 0 mm 3 mps 756 mmHg 75%
    13:00 +12°C° 0 mm 3 mps 756 mmHg 75%
    14:00 +13°C° 0 mm 4 mps 756 mmHg 75%
    15:00 +13°C° 0 mm 4 mps 756 mmHg 74%
    16:00 +12°C° 0 mm 3 mps 756 mmHg 78%
    17:00 +11°C° 0 mm 3 mps 756 mmHg 83%
    18:00 +10°C° 0 mm 2 mps 757 mmHg 87%
    19:00 +10°C° 0 mm 2 mps 757 mmHg 88%
    20:00 +9°C° 0 mm 2 mps 757 mmHg 89%
    21:00 +10°C° 0 mm 1 mps 758 mmHg 90%
    22:00 +10°C° 0 mm 1 mps 758 mmHg 90%
    23:00 +10°C° 0 mm 1 mps 758 mmHg 91%

    Tomorrow, 20 October, Saturday

    Time Temperature Precipitation Wind Pressure Humidity
    00:00 +10°C° 0 mm 1 mps 758 mmHg 91%
    01:00 +10°C° 0 mm 1 mps 758 mmHg 91%
    02:00 +9°C° 0 mm 1 mps 759 mmHg 91%
    03:00 +9°C° 0 mm 1 mps 759 mmHg 91%
    04:00 +9°C° 0 mm 1 mps 759 mmHg 91%
    05:00 +9°C° 0 mm 1 mps 759 mmHg 91%
    06:00 +9°C° 0 mm 1 mps 759 mmHg 91%
    07:00 +9°C° 0 mm 2 mps 759 mmHg 88%
    08:00 +10°C° 0 mm 2 mps 760 mmHg 86%
    09:00 +10°C° 0 mm 2 mps 760 mmHg 83%
    10:00 +13°C° 0 mm 2 mps 760 mmHg 80%
    11:00 +14°C° 0 mm 2 mps 760 mmHg 76%
    12:00 +14°C° 0 mm 3 mps 760 mmHg 72%
    13:00 +16°C° 0 mm 3 mps 760 mmHg 73%
    14:00 +16°C° 0 mm 3 mps 759 mmHg 73%
    15:00 +16°C° 0 mm 3 mps 759 mmHg 73%
    16:00 +14°C° 0 mm 3 mps 759 mmHg 78%
    17:00 +14°C° 0 mm 2 mps 759 mmHg 82%
    18:00 +13°C° 0 mm 2 mps 759 mmHg 87%
    19:00 +13°C° 0 mm 2 mps 759 mmHg 88%
    20:00 +12°C° 0 mm 2 mps 759 mmHg 89%
    21:00 +12°C° 0 mm 2 mps 759 mmHg 90%
    22:00 +12°C° 0 mm 2 mps 759 mmHg 91%
    23:00 +12°C° 0 mm 2 mps 759 mmHg 92%

    Day after tomorrow, 21 October, Sunday

    Time Temperature Precipitation Wind Pressure Humidity
    00:00 +10°C° 0 mm 2 mps 758 mmHg 93%
    01:00 +10°C° 0 mm 2 mps 758 mmHg 93%
    02:00 +10°C° 0 mm 2 mps 758 mmHg 94%
    03:00 +10°C° 0 mm 2 mps 758 mmHg 94%
    04:00 +10°C° 0 mm 3 mps 757 mmHg 95%
    05:00 +10°C° 0 mm 3 mps 757 mmHg 95%
    06:00 +10°C° 0 mm 3 mps 757 mmHg 95%
    07:00 +11°C° 0.1 mm 3 mps 757 mmHg 94%
    08:00 +12°C° 0.1 mm 4 mps 756 mmHg 93%
    09:00 +12°C° 0.1 mm 4 mps 756 mmHg 91%
    10:00 +13°C° 0.1 mm 4 mps 756 mmHg 91%
    11:00 +13°C° 0.1 mm 4 mps 756 mmHg 91%
    12:00 +14°C° 0.1 mm 5 mps 756 mmHg 91%
    13:00 +13°C° 0.2 mm 5 mps 756 mmHg 89%
    14:00 +13°C° 0.2 mm 5 mps 757 mmHg 88%
    15:00 +13°C° 0.2 mm 6 mps 757 mmHg 86%
    16:00 +11°C° 0 mm 6 mps 758 mmHg 84%
    17:00 +10°C° 0 mm 6 mps 758 mmHg 82%
    18:00 +9°C° 0 mm 6 mps 759 mmHg 79%
    19:00 +8°C° 0 mm 5 mps 760 mmHg 78%
    20:00 +7°C° 0 mm 5 mps 761 mmHg 77%
    21:00 +7°C° 0 mm 5 mps 762 mmHg 75%
    22:00 +6°C° 0 mm 4 mps 762 mmHg 76%
    23:00 +6°C° 0 mm 4 mps 763 mmHg 76%

    22 October, Monday

    Time Temperature Precipitation Wind Pressure Humidity
    00:00 +6°C° 0 mm 4 mps 763 mmHg 76%
    01:00 +7°C° 0 mm 3 mps 763 mmHg 75%
    02:00 +5°C° 0 mm 3 mps 764 mmHg 75%
    03:00 +5°C° 0 mm 3 mps 764 mmHg 74%
    04:00 +5°C° 0 mm 3 mps 764 mmHg 74%
    05:00 +5°C° 0 mm 3 mps 765 mmHg 74%
    06:00 +5°C° 0 mm 3 mps 765 mmHg 75%
    07:00 +7°C° 0 mm 3 mps 765 mmHg 72%
    08:00 +7°C° 0 mm 3 mps 766 mmHg 70%
    09:00 +8°C° 0 mm 3 mps 766 mmHg 67%
    10:00 +8°C° 0 mm 4 mps 766 mmHg 67%
    11:00 +9°C° 0 mm 5 mps 766 mmHg 66%
    12:00 +10°C° 0 mm 6 mps 766 mmHg 65%
    13:00 +9°C° 0 mm 6 mps 766 mmHg 67%
    14:00 +9°C° 0 mm 6 mps 766 mmHg 69%
    15:00 +9°C° 0 mm 6 mps 765 mmHg 70%
    16:00 +9°C° 0 mm 6 mps 765 mmHg 73%
    17:00 +9°C° 0 mm 6 mps 765 mmHg 76%
    18:00 +8°C° 0 mm 6 mps 765 mmHg 78%
    19:00 +8°C° 0 mm 6 mps 765 mmHg 78%
    20:00 +8°C° 0 mm 6 mps 765 mmHg 79%
    21:00 +8°C° 0 mm 6 mps 765 mmHg 79%
    22:00 +8°C° 0 mm 6 mps 765 mmHg 80%
    23:00 +8°C° 0 mm 6 mps 765 mmHg 82%

    23 October, Tuesday

    Time Temperature Precipitation Wind Pressure Humidity
    00:00 +8°C° 0 mm 6 mps 764 mmHg 83%
    01:00 +8°C° 0 mm 6 mps 764 mmHg 84%
    02:00 +8°C° 0 mm 6 mps 764 mmHg 84%
    03:00 +8°C° 0 mm 5 mps 764 mmHg 85%
    04:00 +8°C° 0 mm 5 mps 764 mmHg 85%
    05:00 +8°C° 0 mm 5 mps 764 mmHg 85%
    06:00 +8°C° 0 mm 5 mps 764 mmHg 86%
    07:00 +8°C° 0 mm 5 mps 764 mmHg 83%
    08:00 +9°C° 0 mm 5 mps 764 mmHg 81%
    09:00 +9°C° 0 mm 6 mps 764 mmHg 78%
    10:00 +10°C° 0 mm 6 mps 763 mmHg 76%
    11:00 +11°C° 0 mm 6 mps 763 mmHg 74%
    12:00 +11°C° 0 mm 6 mps 763 mmHg 71%
    13:00 +11°C° 0 mm 6 mps 763 mmHg 73%
    14:00 +11°C° 0 mm 6 mps 762 mmHg 74%
    15:00 +11°C° 0 mm 7 mps 762 mmHg 76%
    16:00 +10°C° 0 mm 6 mps 762 mmHg 79%
    17:00 +9°C° 0 mm 6 mps 762 mmHg 81%
    18:00 +9°C° 0 mm 5 mps 762 mmHg 84%
    19:00 +8°C° 0 mm 5 mps 763 mmHg 86%
    20:00 +8°C° 0 mm 5 mps 763 mmHg 87%
    21:00 +8°C° 0 mm 4 mps 763 mmHg 88%
    22:00 +8°C° 0 mm 4 mps 763 mmHg 89%
    23:00 +8°C° 0 mm 4 mps 763 mmHg 89%

    24 October, Wednesday

    Time Temperature Precipitation Wind Pressure Humidity
    00:00 +7°C° 0 mm 4 mps 763 mmHg 90%
    01:00 +8°C° 0 mm 3 mps 762 mmHg 90%
    02:00 +8°C° 0 mm 3 mps 762 mmHg 91%
    03:00 +8°C° 0 mm 3 mps 762 mmHg 91%
    04:00 +8°C° 0 mm 3 mps 762 mmHg 92%
    05:00 +8°C° 0 mm 3 mps 762 mmHg 92%
    06:00 +8°C° 0 mm 3 mps 762 mmHg 93%
    07:00 +9°C° 0 mm 3 mps 762 mmHg 91%
    08:00 +9°C° 0 mm 3 mps 762 mmHg 89%
    09:00 +10°C° 0 mm 4 mps 762 mmHg 88%
    10:00 +11°C° 0 mm 4 mps 762 mmHg 84%
    11:00 +12°C° 0 mm 4 mps 762 mmHg 80%
    12:00 +13°C° 0 mm 4 mps 762 mmHg 77%
    13:00 +13°C° 0 mm 4 mps 762 mmHg 77%
    14:00 +13°C° 0 mm 4 mps 761 mmHg 78%
    15:00 +13°C° 0 mm 4 mps 761 mmHg 78%
    16:00 +11°C° 0 mm 3 mps 761 mmHg 82%
    17:00 +10°C° 0 mm 3 mps 761 mmHg 86%
    18:00 +9°C° 0 mm 3 mps 761 mmHg 90%
    19:00 +9°C° 0 mm 2 mps 761 mmHg 90%
    20:00 +8°C° 0 mm 2 mps 761 mmHg 91%
    21:00 +8°C° 0 mm 2 mps 761 mmHg 91%
    22:00 +8°C° 0 mm 2 mps 761 mmHg 91%
    23:00 +7°C° 0 mm 2 mps 761 mmHg 91%
    Show more